Location: Finney State Fishing Lake and Wildlife Area
(38.1834°N, 100.3310°W)
Time: 06:10:35
(UTC+00:00)

X-37B - Visible Passes

Search period start: 04 December 2023 00:00
Search period end: 14 December 2023 00:00
Orbit: 277 x 277 km, 45.0° (Epoch: 01 November)

Date Brightness Start Highest point End Pass type
(mag) Time Alt. Az. Time Alt. Az. Time Alt. Az.
04 Dec 2.0 00:34:54 10° NW 00:36:40 18° N 00:36:55 17° N visible
05 Dec 2.1 00:35:53 10° NW 00:37:32 16° N 00:37:34 16° N visible
06 Dec 2.1 00:36:43 10° NW 00:38:13 16° N 00:38:13 16° N visible
07 Dec 2.0 00:37:25 10° NW 00:38:56 18° N 00:38:56 18° N visible
08 Dec 1.6 00:38:02 10° NW 00:39:43 22° N 00:39:43 22° N visible
09 Dec 1.0 00:38:36 10° NW 00:40:36 31° N 00:40:36 31° N visible
10 Dec 0.0 00:39:12 10° NW 00:41:38 55° NNE 00:41:38 55° NNE visible
11 Dec 0.0 00:39:52 10° WNW 00:42:19 72° SSW 00:42:53 46° SE visible
12 Dec 1.6 00:40:41 10° W 00:42:57 33° SSW 00:44:25 17° SSE visible
13 Dec 3.0 00:41:50 10° W 00:43:31 17° SW 00:45:12 10° S visible
